Flag for South Africa Weather past 2 weeks in Durban, South Africa

Now
64 °F

Passing clouds.


Feels Like: 64 °F
Forecast: 60 / 69 °F
Wind: 10 mph from Southwest

Location: King Shaka International Airport

Current Time: Sep 3, 2015 at 12:58:02 AM

Latest Report: Sep 3, 2015 at 12:00 AM


Visibility: N/A

Pressure: 30.27 "Hg

Humidity: 49%

Dew point: 45 °F

Location of DurbanLocation

Historic Weather in Durban — Graph

°F

Durban temperature yesterday

Maximum temperature yesterday: 72 °F (at 9:00 AM)
Minimum temperature yesterday: 61 °F (at 7:00 AM)
Average temperature yesterday: 67 °F

Past Weeks' High & Low Weather Summary

 TemperatureHumidityPressure
High79 °F (Aug 25, 1:00 PM)94% (Aug 18, 11:00 PM)30.30 "Hg (Aug 18, 11:00 PM)
Low55 °F (Aug 20, 5:00 AM)44% (Sep 2, 12:00 PM)29.80 "Hg (Sep 1, 3:00 AM)
Average68 °F78%30.07 "Hg
* Reported Aug 18 11:00 PM — Sep 2 11:00 PM, Durban, Weather by CustomWeather, © 2015

Note: Actual official high and low records may vary slightly from our data, if they occured in-between our weather recording intervals... More about our weather records

Advertising

Durban weather history for previous 24 hours

 ConditionsComfort  
Time TempWeatherWind HumidityBarometerVisibility
11:00 PM
Wed, Sep 2
64 °FPassing clouds.14 mph52%30.27 "HgN/A
10:00 PM66 °FLight rain. Passing clouds.14 mph52%30.24 "HgN/A
9:00 PM66 °FPassing clouds.12 mph56%30.24 "HgN/A
8:00 PM66 °FPassing clouds.12 mph60%30.21 "HgN/A
7:00 PM68 °FPassing clouds.20 mph60%30.18 "HgN/A
6:00 PM68 °FPassing clouds.22 mph60%30.15 "HgN/A
5:00 PM68 °FPassing clouds.20 mph60%30.12 "HgN/A
4:00 PM70 °FBroken clouds.15 mph57%30.12 "HgN/A
3:00 PM70 °FScattered clouds.17 mph53%30.09 "HgN/A
2:00 PM72 °FPassing clouds.13 mph50%30.09 "HgN/A
1:00 PM72 °FSunny.15 mph47%30.09 "Hg10 mi
12:00 PM72 °FPassing clouds.12 mph44%30.09 "HgN/A
11:00 AM72 °FPassing clouds.10 mph47%30.12 "HgN/A
10:00 AM72 °FPassing clouds.12 mph50%30.12 "HgN/A
9:00 AM72 °FPassing clouds.8 mph50%30.12 "HgN/A
8:00 AM68 °FPassing clouds.6 mph64%30.12 "HgN/A
7:00 AM61 °FPassing clouds.3 mph83%30.09 "HgN/A
6:00 AM63 °FPassing clouds.5 mph83%30.09 "HgN/A
5:00 AM64 °FClear.3 mph78%30.07 "Hg10 mi
4:00 AM64 °FClear.3 mph78%30.07 "Hg10 mi
3:00 AM64 °FClear.3 mph78%30.07 "Hg10 mi
2:00 AM64 °FPassing clouds.7 mph78%30.07 "HgN/A
1:00 AM64 °FPassing clouds.5 mph83%30.07 "HgN/A
12:00 AM66 °FPassing clouds.3 mph73%30.07 "HgN/A
Weather by CustomWeather, © 2015

See weather overviewHow to use our weather pages